Location: Kapla
(46.2483°N, 15.0094°E)
Time: 13:18:54
(UTC+00:00)

USA 306 - Pass Details

Date: 03 March 2021
Orbit: 564 x 577 km, 54.0° (Epoch: 17 April)

Event Time Altitude Azimuth Distance (km) Brightness Sun altitude
Rises 18:21:26 0° 288° (WNW) 2,773 8.1 -16.7°
Reaches altitude 10° 18:23:57 10° 300° (WNW) 1,873 6.6 -17.1°
Maximum altitude 18:27:39 28° 0° (N) 1,080 4.4 -17.8°
Enters shadow 18:29:30 21° 41° (NE) 1,321 4.5 -18.1°
